Home   Weather   Missoula   Past weeks

Flag for USA Past Weather in Missoula, Montana, USA — Yesterday and Last 2 Weeks

Now
30 °F

Overcast.


Feels Like: 25 °F
Forecast: 31 / 40 °F
Wind: 5 mph from West

Location: Missoula International Airport

Current Time: Dec 3, 2016 at 4:52:55 am

Latest Report: Dec 3, 2016 at 3:53 am


Visibility: 10 mi

Pressure: 30.13 "Hg (26.67 "Hg at 971m altitude)

Humidity: 92%

Dew Point: 28 °F

Location of MissoulaLocation

Past Weather in Missoula — Graph

°F

Missoula Temperature Yesterday

Maximum temperature yesterday: 34 °F (at 4:53 pm)
Minimum temperature yesterday: 26 °F (at 8:53 am)
Average temperature yesterday: 31 °F

High & Low Weather Summary for the Past Weeks

 TemperatureHumidityPressure
High47 °F (Nov 21, 1:53 pm)100% (Nov 21, 5:53 am)30.47 "Hg (Nov 21, 5:53 am)
Low20 °F (Nov 18, 7:53 am)42% (Nov 24, 1:53 pm)29.53 "Hg (Nov 28, 3:53 am)
Average33 °F82%30.05 "Hg
* Reported Nov 18 1:53 am — Dec 3 1:53 am, Missoula, Weather by CustomWeather, © 2016

Note: Actual official high and low records may vary slightly from our data, if they occured in-between our weather recording intervals... More about our weather records

Advertising

Missoula Weather History for the Previous 24 Hours

Scroll right to see more
 ConditionsComfort  
Time TempWeatherWind HumidityBarometerVisibility
1:53 am
Sat, Dec 3
30 °FOvercast.No wind92%30.12 "Hg10 mi
11:53 pm
Fri, Dec 2
30 °FOvercast.3 mph89%30.16 "Hg10 mi
10:53 pm31 °FMostly cloudy.3 mph82%30.18 "Hg10 mi
9:53 pm30 °FOvercast.5 mph89%30.20 "Hg10 mi
8:53 pm32 °FOvercast.3 mph75%30.22 "Hg10 mi
7:53 pm32 °FMostly cloudy.No wind79%30.25 "Hg10 mi
6:53 pm33 °FMostly cloudy.5 mph70%30.25 "Hg10 mi
5:53 pm33 °FMostly cloudy.N/A70%30.26 "Hg10 mi
4:53 pm34 °FOvercast.5 mph70%30.26 "Hg10 mi
3:53 pm33 °FOvercast.3 mph85%30.28 "Hg10 mi
2:53 pm33 °FOvercast.No wind82%30.30 "Hg10 mi
1:53 pm33 °FOvercast.No wind85%30.32 "Hg10 mi
12:53 pm32 °FOvercast.5 mph92%30.35 "Hg10 mi
11:53 am31 °FMore clouds than sun.3 mph89%30.38 "Hg10 mi
10:53 am29 °FOvercast.No wind93%30.39 "Hg10 mi
9:53 am30 °FOvercast.3 mph85%30.40 "Hg10 mi
8:53 am26 °FOvercast.3 mph88%30.40 "Hg10 mi
7:53 am27 °FPassing clouds.No wind81%30.38 "Hg10 mi
6:53 am28 °FOvercast.3 mph89%30.38 "Hg10 mi
5:53 am29 °FOvercast.No wind93%30.37 "Hg10 mi
4:53 am31 °FOvercast.No wind89%30.35 "Hg10 mi
Weather by CustomWeather, © 2016

See weather overviewHow to use our weather pages